Selinsgrove, PA

5:16 AM EST on February 25, 2017 (GMT -0500)
Penn Valley

Weather History for KSEG - April, 2014

Change the Weather History Date:

Thursday, April 24, 2014

  Actual Average (KIPT) Record (KIPT)
Temperature  
Mean Temperature 46 °F -  
Max Temperature 64 °F 62 °F 96 °F (1925)
Min Temperature 30 °F 38 °F 25 °F (1930)
Degree Days  
Heating Degree Days 18    
Moisture  
Dew Point 20 °F    
Average Humidity 38    
Maximum Humidity 85    
Minimum Humidity 15    
Precipitation  
Precipitation 0.00 in - - ()
Sea Level Pressure  
Sea Level Pressure 30.04 in    
Wind  
Wind Speed 6 mph (NNW)    
Max Wind Speed 13 mph    
Max Gust Speed 22 mph    
Visibility 10 miles    
Events      
Averages and records for this station are not official NWS values.
T = Trace of Precipitation, MM = Missing Value Source: NWS Daily Summary

Daily Weather History Graph

Daily Weather History Graph

Search for Another Location

Airport or City:

Trip Planner

Search our weather history database for the weather conditions in past years. The results will help you decide how hot, cold, wet, or windy it might be!

Date:

Astronomy

Apr. 24, 2014 Rise Set
Actual Time 6:15 AM EDT 7:56 PM EDT
Civil Twilight 5:46 AM EDT 8:25 PM EDT
Nautical Twilight 5:10 AM EDT 9:01 PM EDT
Astronomical Twilight 4:33 AM EDT 9:38 PM EDT
Moon 3:27 AM EDT (4/24) 3:07 PM EDT (4/24)
Length of Visible Light 14h 39m
Length of Day
13h 41m
Waning Crescent, 24% of the Moon is Illuminated
Apr 24
Waning Crescent
Apr 29
New
May 6
First Quarter
May 14
Full
May 21
Last Quarter

Hourly Weather History & Observations

Time (EDT) Temp. Windchill Dew Point Humidity Pressure Visibility Wind Dir Wind Speed Gust Speed Precip Events Conditions
12:53 AM 34.0 °F - 30.0 °F 85% 30.00 in 10.0 mi Calm Calm - N/A   Clear
1:53 AM 43.0 °F 37.7 °F 21.0 °F 42% 30.00 in 10.0 mi NW 9.2 mph - N/A   Clear
2:53 AM 41.0 °F - 19.0 °F 41% 30.00 in 10.0 mi Calm Calm - N/A   Clear
3:53 AM 37.0 °F - 19.9 °F 50% 30.01 in 10.0 mi Calm Calm - N/A   Clear
4:53 AM 34.0 °F 28.8 °F 21.9 °F 61% 30.02 in 10.0 mi WNW 5.8 mph - N/A   Clear
5:53 AM 30.0 °F 23.2 °F 21.9 °F 72% 30.04 in 10.0 mi NNW 6.9 mph - N/A   Clear
6:53 AM 39.0 °F 34.0 °F 17.1 °F 41% 30.08 in 10.0 mi NW 6.9 mph - N/A   Clear
7:53 AM 42.1 °F 38.4 °F 19.0 °F 40% 30.10 in 10.0 mi Variable 5.8 mph - N/A   Clear
8:53 AM 45.0 °F 39.7 °F 19.0 °F 36% 30.12 in 10.0 mi North 10.4 mph 18.4 mph N/A   Clear
9:53 AM 48.9 °F - 19.0 °F 31% 30.11 in 10.0 mi North 11.5 mph - N/A   Clear
10:53 AM 51.1 °F - 19.0 °F 28% 30.12 in 10.0 mi North 11.5 mph - N/A   Clear
11:53 AM 54.0 °F - 18.0 °F 24% 30.10 in 10.0 mi North 12.7 mph 18.4 mph N/A   Clear
12:53 PM 57.0 °F - 18.0 °F 22% 30.07 in 10.0 mi NNW 11.5 mph 20.7 mph N/A   Clear
1:53 PM 60.1 °F - 18.0 °F 20% 30.04 in 10.0 mi NNW 8.1 mph - N/A   Clear
2:53 PM 62.1 °F - 17.1 °F 18% 30.02 in 10.0 mi WNW 5.8 mph 19.6 mph N/A   Clear
3:53 PM 63.0 °F - 17.1 °F 17% 30.00 in 10.0 mi NNE 10.4 mph 21.9 mph N/A   Clear
4:53 PM 62.1 °F - 12.9 °F 15% 29.99 in 10.0 mi North - - N/A   Clear
5:53 PM 63.0 °F - 17.1 °F 17% 30.00 in 10.0 mi North 9.2 mph - N/A   Clear
6:53 PM 61.0 °F - 17.1 °F 18% 30.01 in 10.0 mi NE 11.5 mph - N/A   Clear
7:53 PM 54.0 °F - 19.0 °F 25% 30.02 in 10.0 mi NNE 6.9 mph - N/A   Clear
8:53 PM 50.0 °F - 21.0 °F 32% 30.03 in 10.0 mi Calm Calm - N/A   Clear
9:53 PM 45.0 °F 42.6 °F 28.0 °F 52% 30.04 in 10.0 mi NNW 4.6 mph - N/A   Clear
10:53 PM 41.0 °F 39.0 °F 28.0 °F 60% 30.05 in 10.0 mi NNW 3.5 mph - N/A   Clear
11:53 PM 39.9 °F 37.8 °F 28.0 °F 63% 30.05 in 10.0 mi North 3.5 mph - N/A   Clear